Weather History for KVWU - January, 2014

Change the Weather History Date:

Friday, January 31, 2014

  Actual Average (KBDE) Record (KBDE)
Temperature  
Mean Temperature 9 °F -  
Max Temperature 32 °F 18 °F 43 °F (1952)
Min Temperature -14 °F -4 °F -41 °F (1959)
Degree Days  
Heating Degree Days 56    
Moisture  
Dew Point -11 °F    
Average Humidity 75    
Maximum Humidity 87    
Minimum Humidity 56    
Precipitation  
Precipitation 0.00 in - - ()
Sea Level Pressure  
Sea Level Pressure 29.86 in    
Wind  
Wind Speed 8 mph (SSW)    
Max Wind Speed 15 mph    
Max Gust Speed 20 mph    
Visibility 10 miles    
Events      
Averages and records for this station are not official NWS values.
T = Trace of Precipitation, MM = Missing Value Source: NWS Daily Summary

Daily Weather History Graph

Daily Weather History Graph

Search for Another Location

Airport or City:

Trip Planner

Search our weather history database for the weather conditions in past years. The results will help you decide how hot, cold, wet, or windy it might be!

Date:

Astronomy

Jan. 31, 2014 Rise Set
Actual Time 7:47 AM CST 5:16 PM CST
Civil Twilight 7:13 AM CST 5:49 PM CST
Nautical Twilight 6:36 AM CST 6:27 PM CST
Astronomical Twilight 6:00 AM CST 7:03 PM CST
Moon 7:49 AM CST (1/31) 6:51 PM CST (1/31)
Length of Visible Light 10h 35m
Length of Day
9h 28m
New Moon, 1% of the Moon is Illuminated
Jan 31
New Moon
Feb 6
First Quarter
Feb 14
Full
Feb 22
Last Quarter
Mar 1
New

Hourly Weather History & Observations

Time (CST) Temp. Windchill Dew Point Humidity Pressure Visibility Wind Dir Wind Speed Gust Speed Precip Events Conditions
12:09 AM -11.2 °F -26.4 °F -16.6 °F 77% 29.90 in 10.0 mi SW 6.9 mph - N/A   Overcast
12:30 AM -13.0 °F -30.0 °F -18.4 °F 77% 29.90 in 10.0 mi SSW 8.1 mph - N/A   Overcast
12:49 AM -11.2 °F -29.0 °F -16.6 °F 77% 29.90 in 10.0 mi SSW 9.2 mph - N/A   Overcast
1:09 AM -11.2 °F -26.4 °F -16.6 °F 77% 29.90 in 10.0 mi SSW 6.9 mph - N/A   Overcast
1:30 AM -11.2 °F -23.0 °F -16.6 °F 77% 29.90 in 10.0 mi SSW 4.6 mph - N/A   Overcast
1:49 AM -11.2 °F -29.0 °F -16.6 °F 77% 29.89 in 10.0 mi SW 9.2 mph - N/A   Overcast
2:09 AM -11.2 °F -24.8 °F -16.6 °F 77% 29.90 in 10.0 mi SSW 5.8 mph - N/A   Overcast
2:30 AM -9.4 °F -26.8 °F -14.8 °F 77% 29.90 in 7.0 mi SW 9.2 mph - N/A   Overcast
2:49 AM -11.2 °F -26.4 °F -16.6 °F 77% 29.90 in 7.0 mi SW 6.9 mph - N/A   Mostly Cloudy
3:09 AM -11.2 °F -27.8 °F -16.6 °F 77% 29.90 in 10.0 mi SSW 8.1 mph - N/A   Scattered Clouds
3:30 AM -11.2 °F -27.8 °F -16.6 °F 77% 29.89 in 10.0 mi SW 8.1 mph - N/A   Clear
3:49 AM -13.0 °F -22.7 °F -16.6 °F 84% 29.89 in 10.0 mi SSW 3.5 mph - N/A   Clear
4:09 AM -13.0 °F -27.0 °F -16.6 °F 84% 29.88 in 10.0 mi SSW 5.8 mph - N/A   Mostly Cloudy
4:30 AM -13.0 °F -27.0 °F -16.6 °F 84% 29.88 in 10.0 mi SSW 5.8 mph - N/A   Scattered Clouds
4:49 AM -13.0 °F -28.6 °F -16.6 °F 84% 29.88 in 10.0 mi SSW 6.9 mph - N/A   Clear
5:09 AM -13.0 °F -31.3 °F -16.6 °F 84% 29.89 in 10.0 mi SSW 9.2 mph - N/A   Clear
5:30 AM -13.0 °F -28.6 °F -16.6 °F 84% 29.88 in 10.0 mi South 6.9 mph - N/A   Clear
5:49 AM -14.8 °F -32.2 °F -18.4 °F 84% 29.88 in 10.0 mi SSW 8.1 mph - N/A   Clear
6:09 AM -14.8 °F -35.6 °F -18.4 °F 84% 29.88 in 10.0 mi SSW 11.5 mph - N/A   Clear
6:29 AM -14.8 °F -32.2 °F -18.4 °F 84% 29.89 in 10.0 mi SSW 8.1 mph - N/A   Clear
6:49 AM -14.8 °F -33.5 °F -18.4 °F 84% 29.89 in 10.0 mi SSW 9.2 mph - N/A   Clear
7:09 AM 32.0 °F 26.4 °F 28.4 °F 87% - 10.0 mi SSW 5.8 mph - N/A   Clear
7:30 AM -14.8 °F -29.1 °F -18.4 °F 84% 29.89 in 10.0 mi SSW 5.8 mph - N/A   Clear
7:49 AM -14.8 °F -32.2 °F -18.4 °F 84% 29.89 in 10.0 mi SSW 8.1 mph - N/A   Clear
8:09 AM -14.8 °F -29.1 °F -18.4 °F 84% 29.90 in 10.0 mi SSW 5.8 mph - N/A   Clear
8:29 AM -13.0 °F -30.0 °F -18.4 °F 77% 29.90 in 10.0 mi SSW 8.1 mph - N/A   Clear
8:49 AM -11.2 °F -30.1 °F -16.6 °F 77% 29.90 in 10.0 mi SSW 10.4 mph - N/A   Clear
9:09 AM -11.2 °F -32.1 °F -18.4 °F 70% 29.90 in 10.0 mi SSW 12.7 mph 17.3 mph N/A   Clear
9:30 AM -11.2 °F -31.1 °F -16.6 °F 77% 29.90 in 10.0 mi SW 11.5 mph 17.3 mph N/A   Clear
9:49 AM -9.4 °F -27.9 °F -16.6 °F 71% 29.90 in 10.0 mi SSW 10.4 mph - N/A   Clear
10:09 AM -9.4 °F -29.8 °F -16.6 °F 71% 29.90 in 10.0 mi SW 12.7 mph 16.1 mph N/A   Clear
10:30 AM -7.6 °F -27.5 °F -14.8 °F 71% 29.89 in 10.0 mi SSW 12.7 mph - N/A   Clear
10:49 AM -5.8 °F -24.4 °F -14.8 °F 65% 29.90 in 10.0 mi SW 11.5 mph - N/A   Clear
11:10 AM -5.8 °F -23.4 °F -14.8 °F 65% 29.89 in 10.0 mi SW 10.4 mph - N/A   Clear
11:29 AM -4.0 °F -23.7 °F -11.2 °F 71% 29.89 in 10.0 mi SW 13.8 mph - N/A   Clear
11:49 AM -2.2 °F -19.9 °F -11.2 °F 66% 29.88 in 10.0 mi SW 11.5 mph - N/A   Clear
12:10 PM -0.4 °F -18.4 °F -9.4 °F 66% 29.87 in 10.0 mi SW 12.7 mph - N/A   Clear
12:29 PM -0.4 °F -18.4 °F -9.4 °F 66% 29.87 in 10.0 mi SW 12.7 mph 18.4 mph N/A   Clear
12:49 PM 1.4 °F -17.6 °F -7.6 °F 66% 29.87 in 10.0 mi SW 15.0 mph - N/A   Clear
1:10 PM 1.4 °F -16.9 °F -7.6 °F 66% 29.87 in 10.0 mi SW 13.8 mph - N/A   Clear
1:29 PM 1.4 °F -17.6 °F -7.6 °F 66% 29.87 in 10.0 mi SW 15.0 mph 19.6 mph N/A   Clear
1:49 PM 3.2 °F -15.3 °F -5.8 °F 66% 29.86 in 10.0 mi SW 15.0 mph - N/A   Clear
2:10 PM 3.2 °F -13.1 °F -5.8 °F 66% 29.86 in 10.0 mi SW 11.5 mph - N/A   Clear
2:29 PM 3.2 °F -14.6 °F -5.8 °F 66% 29.85 in 10.0 mi SW 13.8 mph - N/A   Clear
2:49 PM 5.0 °F -10.8 °F -5.8 °F 61% 29.84 in 10.0 mi SW 11.5 mph - N/A   Clear
3:10 PM 5.0 °F -11.6 °F -5.8 °F 61% 29.84 in 10.0 mi SSW 12.7 mph 17.3 mph N/A   Clear
3:29 PM 6.8 °F -7.8 °F -5.8 °F 56% 29.84 in 10.0 mi SW 10.4 mph 16.1 mph N/A   Clear
3:49 PM 5.0 °F -10.0 °F -5.8 °F 61% 29.84 in 10.0 mi SW 10.4 mph - N/A   Clear
4:10 PM 3.2 °F -10.3 °F -5.8 °F 66% 29.83 in 10.0 mi SW 8.1 mph - N/A   Clear
4:29 PM 3.2 °F -9.1 °F -7.6 °F 61% 29.84 in 10.0 mi SW 6.9 mph - N/A   Clear
4:49 PM 1.4 °F -11.3 °F -7.6 °F 66% 29.83 in 10.0 mi SW 6.9 mph - N/A   Clear
5:10 PM -0.4 °F -8.3 °F -7.6 °F 72% 29.83 in 10.0 mi SSW 3.5 mph - N/A   Clear
5:29 PM -0.4 °F -8.3 °F -7.6 °F 72% 29.83 in 10.0 mi SSW 3.5 mph - N/A   Clear
5:49 PM 1.4 °F -6.2 °F -7.6 °F 66% 29.82 in 10.0 mi SSW 3.5 mph - N/A   Clear
6:10 PM 1.4 °F - -5.8 °F 72% 29.82 in 10.0 mi Calm Calm - N/A   Clear
6:29 PM -0.4 °F - -7.6 °F 72% 29.81 in 10.0 mi Calm Calm - N/A   Clear
6:49 PM -5.8 °F - -11.2 °F 77% 29.82 in 10.0 mi Calm Calm - N/A   Clear
7:10 PM -9.4 °F - -14.8 °F 77% 29.82 in 10.0 mi Calm Calm - N/A   Clear
7:29 PM -7.6 °F - -11.2 °F 84% 29.82 in 10.0 mi Calm Calm - N/A   Clear
7:49 PM -7.6 °F -16.5 °F -11.2 °F 84% 29.82 in 10.0 mi South 3.5 mph - N/A   Clear
8:09 PM -2.2 °F -12.5 °F -5.8 °F 85% 29.82 in 10.0 mi South 4.6 mph - N/A   Clear
8:29 PM -0.4 °F - -5.8 °F 78% 29.82 in 10.0 mi Calm Calm - N/A   Clear
8:49 PM -0.4 °F -10.4 °F -5.8 °F 78% 29.82 in 10.0 mi SSW 4.6 mph - N/A   Clear
9:09 PM 1.4 °F -8.3 °F -5.8 °F 72% 29.82 in 10.0 mi South 4.6 mph - N/A   Clear
9:29 PM -0.4 °F -12.0 °F -5.8 °F 78% 29.82 in 10.0 mi South 5.8 mph - N/A   Clear
9:49 PM -0.4 °F -13.4 °F -5.8 °F 78% 29.83 in 10.0 mi South 6.9 mph - N/A   Clear
10:09 PM 1.4 °F -9.9 °F -5.8 °F 72% 29.82 in 10.0 mi South 5.8 mph - N/A   Clear
10:29 PM 1.4 °F -9.9 °F -5.8 °F 72% 29.81 in 10.0 mi SSW 5.8 mph - N/A   Clear
10:49 PM 1.4 °F -11.3 °F -4.0 °F 78% 29.81 in 10.0 mi South 6.9 mph - N/A   Clear
11:09 PM 1.4 °F -6.2 °F -4.0 °F 78% 29.82 in 10.0 mi South 3.5 mph - N/A   Clear
11:29 PM 1.4 °F - -4.0 °F 78% 29.81 in 10.0 mi Calm Calm - N/A   Clear
11:49 PM 1.4 °F -6.2 °F -4.0 °F 78% 29.82 in 10.0 mi South 3.5 mph - N/A   Clear